Temp
20 20 20 20 21 21 21 21 20 21 22 23 21 21 21 22 21 19 20 19 19 18 17 17 16 15 14 14 14 14 12 12 12 11 11 10 9 8 7 6 6 5 4 4
15 20 20 20 20 21 21 21 21 21 21 23 22 21 22 22 22 21 20 19 18 18 17 16 15 15 14 13 13 13 12 11 12 11 10 9 8 8 7 6 5 5 4 4
17 19 20 18 19 20 22 21 21 20 21 22 20 21 20 19 19 18 18 18 20 17 17 16 16 15 13 13 13 12 11 11 11 10 9 9 8 7 7 6 5 5 4 4
14 17 16 19 22 23 21 22 22 23 22 22 19 18 17 18 17 17 18 18 17 17 17 16 15 14 13 13 12 11 10 11 10 10 9 9 8 7 7 6 5 5 4 4
15 15 17 20 21 20 20 21 21 21 19 19 17 16 17 17 17 17 18 17 17 18 18 17 15 15 14 11 11 10 10 10 10 10 9 8 8 7 7 6 5 5 4 4
10 15 16 19 22 21 21 18 20 19 18 18 16 14 15 17 17 17 19 19 18 19 19 17 15 14 12 11 10 9 10 10 11 10 9 9 8 8 7 6 6 5 4 4
10 12 14 18 21 21 18 17 19 18 17 16 16 14 16 17 18 18 19 20 19 19 18 17 15 13 12 10 10 13 11 10 10 10 10 9 8 8 7 6 5 5 4 4
11 13 16 17 21 19 18 17 17 17 16 16 16 15 16 18 19 17 18 19 19 18 18 17 15 14 11 11 15 12 11 11 10 10 9 8 7 7 7 6 5 5 4 3
16 15 18 17 19 18 17 17 17 17 16 16 16 17 17 18 19 17 18 18 19 18 17 17 16 16 13 17 13 12 11 11 10 9 9 8 8 7 6 6 3 4 3 3
16 17 18 18 18 17 18 18 17 16 16 17 17 17 18 17 16 16 17 18 18 17 16 15 15 14 16 17 13 11 11 10 9 9 8 8 8 7 7 5 2 2 2 2
15 17 18 18 18 17 17 17 17 17 17 16 16 16 17 16 16 16 17 17 17 16 16 15 15 15 16 14 13 11 11 10 9 9 9 9 8 7 6 4 4 3 3 3
13 16 17 17 16 16 17 17 16 16 16 17 16 16 16 15 16 16 15 15 15 15 15 15 16 16 15 14 13 12 10 9 8 9 8 7 5 4 3 3 5 5 5 4
16 17 17 16 16 18 16 15 15 15 15 13 13 14 14 13 14 15 15 15 15 14 14 15 15 15 15 15 13 12 11 11 11 8 7 5 4 2 1 1 2 3 2 1
17 16 16 17 17 16 16 15 15 15 15 14 14 14 14 13 14 14 14 13 13 14 14 13 14 14 13 13 12 12 13 13 10 9 7 5 4 2 1 1 -0 -1 -1 0
16 17 17 15 15 14 14 14 13 12 11 11 13 13 13 12 12 12 12 12 12 12 12 11 11 11 12 12 12 12 11 10 10 9 8 6 3 2 1 -0 -1 -1 -1 -2
15 16 15 16 14 13 13 12 11 11 10 10 10 11 12 12 12 12 11 11 10 9 10 9 9 10 9 9 10 10 11 12 10 9 6 3 2 1 0 -1 -2 -1 -1 -1
14 13 13 13 13 12 13 12 11 10 9 10 11 12 12 11 11 10 10 9 7 8 8 7 7 7 7 8 8 8 9 9 8 6 4 3 1 0 -1 -1 -2 -1 -1 -1
15 14 13 12 11 11 10 10 10 11 10 12 12 11 10 9 7 8 7 8 8 8 8 6 6 6 6 6 6 6 6 6 5 3 3 1 0 -1 -2 -2 -2 -0 -1 -2
14 13 12 12 11 10 10 9 11 12 12 12 10 9 8 8 6 5 4 4 3 3 5 4 4 4 4 4 4 5 4 3 2 1 0 -0 -1 -2 -2 -1 -0 -1 -3 -3
12 11 11 11 12 11 9 12 12 10 9 9 8 7 5 5 3 0 -0 -0 3 4 3 3 3 2 2 2 2 2 1 1 0 -0 -1 -1 -2 -2 -1 -1 -1 -3 -3 -3
10 10 10 9 9 11 11 12 10 8 9 8 4 2 3 1 2 0 -1 -0 5 3 2 2 2 1 1 0 0 0 0 -0 -0 -1 -2 -2 -2 -2 -2 -3 -3 -3 -3 -3
9 9 5 6 6 6 9 10 10 8 5 3 1 1 0 2 3 3 3 2 4 3 2 2 1 1 0 0 -0 -0 -0 -1 -1 -2 -2 -2 -3 -3 -3 -3 -3 -3 -3 -3
9 8 7 6 6 7 9 10 10 9 8 6 4 4 3 4 3 2 -1 3 3 2 2 1 1 0 0 -0 -1 -1 -1 -1 -1 -2 -3 -3 -3 -3 -3 -3 -3 -4 -4 -4
9 8 8 9 10 8 6 8 9 9 9 8 7 6 5 4 4 4 3 2 2 2 1 0 0 -0 -1 -1 -1 -1 -1 -2 -2 -2 -3 -3 -3 -4 -4 -4 -4 -4 -5 -5
9 8 7 7 6 5 9 9 9 8 7 6 6 6 6 5 4 4 3 2 1 1 0 -0 -0 -1 -1 -1 -2 -2 -2 -2 -2 -3 -3 -3 -4 -4 -4 -4 -5 -5 -5 -6
7 6 8 10 9 9 10 9 7 8 7 5 6 7 6 5 4 3 2 1 0 -0 -1 -1 -1 -2 -2 -2 -2 -2 -2 -3 -3 -3 -4 -4 -4 -5 -5 -5 -5 -6 -6 -6
8 8 7 7 9 9 9 9 7 8 8 8 8 7 6 4 3 2 1 -0 -1 -2 -2 -3 -3 -3 -3 -3 -3 -3 -3 -3 -4 -4 -4 -5 -5 -5 -6 -6 -6 -6 -7 -7
Height
767 765 770 771 772 771 771 772 786 778 773 774 775 770 765 765 766 773 776 778 780 783 787 791 796 801 806 810 814 818 824 829 833 839 843 847 851 853 857 861 864 866 866 867
786 765 766 768 765 765 765 767 772 770 777 763 761 762 763 761 763 766 770 773 775 778 783 786 788 792 798 802 807 813 818 823 829 834 838 840 843 846 852 854 859 861 862 863
787 767 767 780 765 759 757 756 764 777 761 757 765 762 766 767 768 770 772 771 772 772 773 777 781 785 789 793 801 808 813 819 823 826 830 833 836 839 843 847 852 855 857 859
792 780 793 759 738 742 754 753 751 750 754 756 760 766 768 767 767 768 768 769 771 770 772 774 776 782 788 792 797 803 808 812 817 821 825 828 831 833 837 841 844 848 851 853
784 788 767 749 742 746 752 752 742 748 752 758 763 766 771 767 766 768 769 770 770 771 770 772 775 778 783 789 793 799 803 805 809 813 817 821 823 826 829 833 837 840 844 847
794 779 778 748 727 728 736 765 738 743 752 756 763 783 778 767 766 766 767 768 768 768 768 770 772 775 780 785 790 793 796 799 804 808 810 812 815 818 823 826 830 835 837 840
788 783 763 734 725 728 764 761 735 738 747 755 762 762 760 761 763 762 762 764 766 767 768 770 773 777 780 784 785 783 791 796 799 801 803 807 810 814 819 823 827 830 833 836
775 772 764 728 724 739 734 734 735 739 745 752 753 755 757 757 760 761 762 764 765 766 767 768 771 775 779 781 777 783 787 790 793 796 800 805 809 813 818 821 823 825 827 831
735 741 720 719 717 721 724 729 735 737 743 747 752 754 757 758 759 761 761 763 764 765 766 767 767 767 770 768 773 777 780 782 785 789 793 796 801 805 811 814 816 819 822 826
724 717 716 717 717 718 722 726 730 734 739 744 749 753 755 759 762 762 763 762 763 764 765 765 765 765 762 764 766 770 773 776 781 786 790 794 798 798 799 799 805 807 812 817
717 709 712 714 714 717 722 725 730 734 737 742 746 750 754 757 759 761 761 761 762 763 763 762 763 762 760 763 765 766 767 769 772 778 779 783 782 787 786 788 793 798 802 808
717 701 706 711 713 714 721 726 730 733 740 742 744 748 751 756 758 759 761 762 762 764 764 763 761 760 760 760 760 759 762 764 767 770 773 773 776 779 782 784 787 792 796 800
692 693 698 703 708 711 719 724 726 732 738 743 745 747 752 756 756 758 759 760 762 763 762 760 758 759 758 757 757 757 758 759 760 758 761 767 768 771 776 780 784 789 792 794
681 690 704 705 712 713 717 723 727 733 737 741 746 750 752 755 756 757 757 760 761 761 761 759 759 757 756 755 754 751 748 747 748 749 753 757 760 762 767 770 774 781 786 789
685 685 692 701 708 715 718 723 730 735 740 746 747 749 751 754 755 758 758 757 758 758 757 756 756 755 754 752 750 748 746 745 745 744 745 747 751 755 760 764 769 774 781 786
685 686 692 699 708 714 719 725 730 737 741 744 747 749 752 751 751 756 755 755 756 755 755 753 751 751 750 747 744 743 741 739 739 739 739 742 746 750 754 759 764 769 774 778
688 697 697 703 709 714 717 722 728 734 736 739 742 746 747 748 752 755 755 756 756 755 753 751 748 746 744 741 739 737 736 734 732 732 734 736 740 745 748 752 757 764 769 773
681 686 691 698 708 714 721 723 729 731 733 736 739 743 746 750 753 754 755 753 751 750 749 747 744 740 737 735 734 732 731 731 729 728 730 732 737 741 745 750 754 761 765 769
680 688 695 700 706 712 717 723 726 727 732 736 739 743 745 747 750 752 751 750 748 746 745 743 741 737 734 732 730 728 727 728 728 728 730 734 739 743 746 750 754 758 762 766
682 687 694 702 706 709 715 719 723 726 733 737 739 743 746 748 748 748 748 748 747 744 742 740 737 734 732 730 728 727 727 728 729 730 732 736 739 744 747 750 753 756 760 763
683 689 697 702 708 711 716 719 723 729 732 736 741 745 745 746 746 747 746 745 744 743 741 738 736 734 732 731 731 728 728 730 731 733 735 737 740 743 746 749 752 755 758 760
683 691 700 705 709 716 717 718 723 728 733 737 740 742 742 741 742 743 742 742 740 739 738 737 734 733 733 733 732 731 730 732 733 735 737 739 742 744 746 749 751 753 756 759
684 692 700 705 711 715 717 720 723 728 732 734 737 738 737 739 741 740 739 738 736 737 734 732 733 733 733 734 733 732 733 734 735 737 739 741 743 745 747 749 751 753 755 757
688 693 698 704 710 715 718 720 723 726 728 732 733 735 736 736 737 737 737 737 735 733 732 731 730 732 733 734 734 734 734 736 737 738 741 742 744 745 747 749 751 753 754 755
686 694 700 705 710 715 717 719 723 724 727 729 732 733 735 736 736 736 735 734 733 732 731 730 731 732 733 734 735 735 735 737 738 739 741 743 744 746 748 749 751 752 753 754
690 696 699 703 709 714 717 719 721 723 725 728 729 729 730 732 733 733 733 732 731 731 731 731 733 733 733 734 735 735 736 737 738 739 742 744 745 746 748 749 750 751 752 752
693 696 703 708 712 714 715 716 718 720 721 722 724 726 728 730 730 729 730 730 730 732 731 731 732 734 734 734 735 736 736 736 738 740 742 744 745 746 747 748 749 750 750 750
Wind_Speed
4 6 5 5 2 1 1 3 6 6 9 10 9 8 8 6 8 8 13 15 17 17 18 27 28 28 29 33 42 42 44 44 42 37 32 28 25 25 23 22 21 18 17 16
2 5 8 7 6 5 1 2 3 4 6 7 10 7 6 7 3 5 8 10 10 10 15 21 29 31 31 36 41 42 43 44 40 36 33 30 29 27 26 25 23 21 20 18
5 3 1 6 11 8 3 1 6 7 5 2 5 8 7 7 8 8 6 5 1 10 20 25 29 34 35 41 41 42 41 41 40 38 36 33 31 30 31 28 26 25 21 19
4 4 6 6 8 11 11 12 9 4 8 14 8 5 5 2 7 6 5 4 3 1 12 21 27 30 29 35 40 40 39 41 40 38 37 34 33 34 32 30 29 27 23 21
6 4 4 3 6 9 10 10 9 9 7 13 11 7 4 3 4 5 4 1 3 5 8 20 28 33 35 33 35 35 37 40 41 40 38 36 37 37 36 33 31 29 25 22
3 6 8 7 5 6 6 5 6 9 14 17 7 4 4 5 6 6 6 3 2 3 2 17 26 31 32 31 33 34 38 42 42 40 39 39 39 39 37 36 32 29 27 24
3 3 6 6 5 7 8 7 5 12 10 8 6 5 6 7 5 6 4 2 3 2 5 13 21 26 28 27 32 44 38 37 38 39 41 39 39 37 35 34 31 29 28 26
3 3 7 7 1 11 6 1 6 7 6 8 9 8 6 6 4 6 5 5 6 8 11 14 20 25 25 30 40 32 35 36 38 39 38 35 34 33 30 30 31 31 29 26
10 7 4 4 5 4 6 8 6 8 6 7 8 6 6 4 1 4 6 9 14 15 16 20 25 30 32 38 34 35 34 37 38 37 35 35 32 33 30 32 32 32 29 28
5 5 5 7 4 8 6 7 8 8 9 8 8 7 5 3 2 2 5 6 8 10 16 22 29 32 36 35 34 34 35 34 32 31 31 31 31 32 38 38 33 33 32 30
2 4 5 3 7 9 8 9 9 7 7 8 9 7 6 4 3 3 4 8 9 8 6 13 24 32 37 35 29 31 34 34 33 33 34 36 40 44 44 39 39 38 35 33
5 7 7 6 9 9 9 7 9 10 6 5 6 6 5 4 4 6 9 11 13 13 13 14 13 14 28 34 34 33 31 30 31 31 38 38 33 33 30 34 35 35 30 28
5 9 7 9 10 6 10 10 8 10 8 10 8 15 11 6 12 12 11 11 11 12 14 16 16 14 14 21 28 32 32 31 36 35 34 29 30 28 27 19 22 26 24 22
12 9 7 7 8 10 13 10 17 16 15 16 15 15 13 10 8 9 8 7 7 9 10 12 14 15 15 15 19 31 37 41 39 37 36 34 34 32 30 33 29 25 21 21
11 7 9 9 9 8 11 13 12 9 8 8 14 13 11 8 6 5 6 6 7 10 14 17 18 20 20 21 19 19 26 32 34 36 37 38 33 30 30 30 27 27 22 17
8 11 14 15 13 12 13 10 11 7 7 6 9 9 8 8 6 6 8 10 11 11 16 19 21 24 23 22 21 23 22 25 31 33 32 30 29 28 29 26 23 24 22 21
13 8 10 9 13 11 11 9 10 8 7 8 9 8 5 5 5 6 9 10 12 14 16 16 19 19 19 19 20 21 22 23 25 27 27 28 28 27 25 25 24 25 22 23
6 6 8 12 12 11 9 9 11 12 7 11 9 4 3 3 2 7 10 14 15 17 18 14 18 21 20 17 17 19 22 23 19 21 22 23 24 23 22 22 22 19 20 19
12 11 11 14 12 11 10 7 12 15 12 8 5 3 2 4 6 8 8 12 15 16 15 17 18 18 19 18 17 18 17 16 15 15 16 16 17 18 19 19 15 16 17 16
9 10 16 15 22 18 9 17 17 15 10 7 5 2 6 5 3 5 7 12 15 13 14 16 19 18 17 16 15 13 10 11 12 12 13 14 15 15 16 15 15 15 15 15
12 13 12 10 10 18 20 18 16 11 6 3 2 2 3 4 5 6 7 7 12 9 13 15 16 16 14 11 9 7 5 6 7 9 12 12 13 16 16 13 12 13 14 15
10 10 9 15 15 13 15 13 9 8 6 4 3 3 4 7 7 9 9 11 12 10 11 13 13 12 8 7 6 3 1 4 6 7 8 10 12 12 11 11 12 10 11 13
11 15 17 17 14 14 13 9 6 3 3 5 8 8 10 9 8 7 4 4 7 9 11 9 8 7 4 5 3 2 3 4 5 6 7 8 9 9 9 9 9 11 10 10
14 17 16 20 19 13 6 6 4 5 8 9 10 9 9 8 9 9 9 10 8 9 9 5 4 4 3 3 4 5 4 4 4 4 5 6 6 6 6 7 8 8 7 8
19 17 20 17 10 6 7 7 7 7 9 10 9 9 9 10 9 6 7 8 9 8 6 3 4 7 5 5 8 6 5 4 4 5 6 6 5 6 6 6 6 6 6 6
15 13 19 19 15 11 10 8 6 6 7 10 11 12 12 11 11 10 9 9 8 6 4 4 7 8 7 7 7 7 6 4 3 4 5 5 6 6 6 6 6 6 6 6
18 18 14 10 12 12 9 7 8 12 11 11 13 11 13 13 11 9 9 8 6 6 6 6 8 8 7 6 6 6 5 4 4 5 6 5 5 5 5 5 5 5 5 6
Wind_Direction
199 163 162 183 182 111 170 133 205 194 186 191 201 196 192 191 183 177 201 201 202 201 199 201 200 199 196 195 201 201 196 196 201 204 205 205 205 208 215 218 222 224 221 222
249 199 210 228 194 156 293 132 239 111 178 200 225 182 203 230 176 161 176 196 198 200 200 196 195 194 190 194 198 199 195 197 201 204 203 206 207 207 215 216 220 222 224 227
222 180 173 270 217 170 173 43 189 193 175 6 215 193 169 140 132 123 88 45 291 207 194 198 197 192 189 196 196 195 194 199 205 206 205 209 209 210 212 215 218 223 226 227
172 104 223 231 199 207 204 210 190 194 158 197 162 109 109 127 121 107 92 66 53 340 211 200 193 190 189 193 195 192 194 202 208 209 210 212 211 212 215 216 220 223 226 227
148 207 292 265 213 200 183 226 188 186 147 140 130 92 47 146 124 125 112 81 357 354 255 208 196 196 193 189 190 191 197 203 210 213 212 213 214 215 216 216 220 225 229 227
144 166 213 216 231 144 100 238 192 148 154 152 151 124 220 199 160 158 148 135 77 29 215 210 203 199 188 185 189 197 204 211 216 217 218 219 218 218 219 220 225 225 227 230
146 201 283 246 243 141 151 233 177 163 160 147 153 186 172 177 181 178 182 196 156 178 197 212 205 201 191 190 200 217 214 217 219 223 224 225 222 221 223 222 226 227 229 229
101 107 263 203 122 174 196 100 125 108 131 126 137 145 157 159 153 201 224 244 234 193 202 205 206 204 198 205 225 218 220 222 225 227 225 225 224 224 226 227 228 228 227 228
182 197 208 203 147 146 152 137 158 129 142 128 129 128 130 134 167 237 231 247 244 228 214 209 210 210 205 232 224 222 222 227 227 226 223 222 222 221 223 225 229 227 223 221
113 203 175 168 127 139 144 132 136 133 137 131 133 145 122 80 57 20 346 331 310 276 242 224 220 220 227 235 229 222 223 223 225 224 219 222 228 225 224 224 220 217 217 221
182 137 120 175 167 157 136 126 121 128 131 133 123 127 135 121 91 88 67 42 36 30 349 268 245 236 239 236 235 225 223 225 223 223 217 222 224 231 223 228 230 218 222 227
202 179 157 177 165 144 134 134 129 118 106 110 111 125 127 135 99 90 64 48 40 27 12 357 351 280 259 249 241 227 216 217 216 221 229 221 215 219 221 234 236 232 237 235
168 155 146 149 149 131 128 136 128 119 116 106 82 98 107 109 88 84 64 51 39 23 14 8 3 340 318 264 250 235 226 228 230 218 217 215 212 204 201 210 214 225 221 215
144 114 104 152 153 140 133 128 114 112 111 116 116 107 105 102 90 77 66 50 40 22 11 5 354 343 339 330 269 245 238 237 233 228 221 225 216 209 204 196 183 184 198 214
156 143 150 129 116 110 119 117 108 107 114 106 113 116 114 112 98 65 44 31 359 341 336 335 329 321 319 311 307 295 267 253 242 238 234 234 218 210 203 199 192 189 190 211
129 122 129 131 131 133 127 119 116 124 124 121 115 113 119 103 68 15 11 357 356 337 325 324 319 318 314 308 306 290 279 268 254 245 238 222 211 204 201 195 184 189 198 229
128 134 137 137 141 144 141 138 138 141 134 127 129 117 69 40 26 1 336 322 320 318 318 321 316 318 317 317 298 288 286 278 261 247 231 220 209 198 189 183 182 190 216 236
137 146 157 141 142 132 125 131 137 138 125 129 134 133 96 64 281 299 306 314 316 319 328 331 327 325 327 321 313 297 286 274 254 236 227 212 200 191 183 178 178 195 226 233
135 133 134 139 142 136 134 138 133 125 129 141 137 136 192 250 266 280 305 312 315 319 339 333 336 333 330 328 316 309 289 262 235 218 209 193 183 187 182 180 192 225 229 230
132 123 129 136 145 141 137 141 135 120 120 118 124 192 266 290 289 313 316 298 308 308 323 336 335 333 333 331 333 323 288 248 220 203 192 186 186 186 184 201 222 224 229 233
140 142 141 137 128 137 138 134 126 127 124 134 178 224 270 287 303 298 296 302 334 326 330 333 334 335 334 332 331 332 292 238 211 195 187 187 185 190 203 214 217 227 232 236
137 132 131 132 130 126 129 122 119 123 135 150 176 217 251 276 275 273 279 274 307 321 324 328 333 337 324 324 316 326 236 192 187 185 190 196 201 203 209 219 229 226 231 231
130 135 138 136 137 139 133 129 133 151 202 234 238 244 247 266 262 255 269 278 300 313 318 324 323 330 291 304 326 178 175 181 186 190 206 216 220 225 235 237 227 232 238 248
133 140 136 139 139 136 128 146 169 218 243 251 254 259 255 263 272 273 277 279 286 313 314 303 298 249 251 266 195 187 187 185 182 195 228 237 237 232 214 219 226 238 246 250
138 135 138 140 139 155 154 167 194 224 244 253 255 262 267 260 261 281 276 282 289 302 300 280 242 210 216 209 202 200 191 193 223 235 241 232 206 208 227 239 245 254 259 262
127 140 153 161 165 169 181 186 207 245 245 249 255 261 260 249 255 256 269 282 284 276 271 250 217 208 209 204 216 205 208 224 227 211 210 211 223 234 238 244 255 260 264 268
124 126 127 144 176 183 188 210 225 252 258 252 253 268 253 242 240 244 262 271 269 251 255 247 218 216 207 212 216 214 220 212 202 217 227 234 235 242 249 257 260 262 267 281